Year,Month,Day,Hour,Minute,Value (Times are PST for temperature in C)
2014,08,27,00,00,17.60
2014,08,27,00,01,17.60
2014,08,27,00,02,17.60
2014,08,27,00,03,17.60
2014,08,27,00,04,17.60
2014,08,27,00,05,17.60
2014,08,27,00,06,17.60
2014,08,27,00,07,17.60
2014,08,27,00,08,17.60
2014,08,27,00,09,17.60
2014,08,27,00,10,17.50
2014,08,27,00,11,17.50
2014,08,27,00,12,17.50
2014,08,27,00,13,17.50
2014,08,27,00,14,17.50
2014,08,27,00,15,17.50
2014,08,27,00,16,17.50
2014,08,27,00,17,17.50
2014,08,27,00,18,17.50
2014,08,27,00,19,17.50
2014,08,27,00,20,17.50
2014,08,27,00,21,17.50
2014,08,27,00,22,17.50
2014,08,27,00,23,17.50
2014,08,27,00,24,17.50
2014,08,27,00,25,17.40
2014,08,27,00,26,17.40
2014,08,27,00,27,17.40
2014,08,27,00,28,17.40
2014,08,27,00,29,17.40
2014,08,27,00,30,17.40
2014,08,27,00,31,17.40
2014,08,27,00,32,17.40
2014,08,27,00,33,17.40
2014,08,27,00,34,17.40
2014,08,27,00,35,17.40
2014,08,27,00,36,17.40
2014,08,27,00,37,17.40
2014,08,27,00,38,17.40
2014,08,27,00,39,17.40
2014,08,27,00,40,17.40
2014,08,27,00,41,17.40
2014,08,27,00,42,17.40
2014,08,27,00,43,17.30
2014,08,27,00,44,17.30
2014,08,27,00,45,17.30
2014,08,27,00,46,17.30
2014,08,27,00,47,17.30
2014,08,27,00,48,17.30
2014,08,27,00,49,17.30
2014,08,27,00,50,17.30
2014,08,27,00,51,17.40
2014,08,27,00,52,17.40
2014,08,27,00,53,17.40
2014,08,27,00,54,17.40
2014,08,27,00,55,17.40
2014,08,27,00,56,17.40
2014,08,27,00,57,17.40
2014,08,27,00,58,17.30
2014,08,27,00,59,17.30
2014,08,27,01,00,17.30
2014,08,27,01,01,17.30
2014,08,27,01,02,17.30
2014,08,27,01,03,17.30
2014,08,27,01,04,17.30
2014,08,27,01,05,17.30
2014,08,27,01,06,17.30
2014,08,27,01,07,17.30
2014,08,27,01,08,17.30
2014,08,27,01,09,17.30
2014,08,27,01,10,17.30
2014,08,27,01,11,17.30
2014,08,27,01,12,17.20
2014,08,27,01,13,17.20
2014,08,27,01,14,17.20
2014,08,27,01,15,17.20
2014,08,27,01,16,17.20
2014,08,27,01,17,17.20
2014,08,27,01,18,17.20
2014,08,27,01,19,17.20
2014,08,27,01,20,17.20
2014,08,27,01,21,17.10
2014,08,27,01,22,17.10
2014,08,27,01,23,17.10
2014,08,27,01,24,17.10
2014,08,27,01,25,17.10
2014,08,27,01,26,17.10
2014,08,27,01,27,17.10
2014,08,27,01,28,17.10
2014,08,27,01,29,17.10
2014,08,27,01,30,17.10
2014,08,27,01,31,17.00
2014,08,27,01,32,17.00
2014,08,27,01,33,17.00
2014,08,27,01,34,17.00
2014,08,27,01,35,17.00
2014,08,27,01,36,17.00
2014,08,27,01,37,17.00
2014,08,27,01,38,17.00
2014,08,27,01,39,16.90
2014,08,27,01,40,16.90
2014,08,27,01,41,16.90
2014,08,27,01,42,16.90
2014,08,27,01,43,16.90
2014,08,27,01,44,16.90
2014,08,27,01,45,16.90
2014,08,27,01,46,16.90
2014,08,27,01,47,16.80
2014,08,27,01,48,16.80
2014,08,27,01,49,16.80
2014,08,27,01,50,16.80
2014,08,27,01,51,16.80
2014,08,27,01,52,16.80
2014,08,27,01,53,16.80
2014,08,27,01,54,16.80
2014,08,27,01,55,16.80
2014,08,27,01,56,16.80
2014,08,27,01,57,16.80
2014,08,27,01,58,16.70
2014,08,27,01,59,16.80
2014,08,27,02,00,16.80
2014,08,27,02,01,16.80
2014,08,27,02,02,16.80
2014,08,27,02,03,16.80
2014,08,27,02,04,16.80
2014,08,27,02,05,16.80
2014,08,27,02,06,16.80
2014,08,27,02,07,16.80
2014,08,27,02,08,16.80
2014,08,27,02,09,16.70
2014,08,27,02,10,16.70
2014,08,27,02,11,16.70
2014,08,27,02,12,16.70
2014,08,27,02,13,16.70
2014,08,27,02,14,16.60
2014,08,27,02,15,16.60
2014,08,27,02,16,16.60
2014,08,27,02,17,16.60
2014,08,27,02,18,16.60
2014,08,27,02,19,16.50
2014,08,27,02,20,16.50
2014,08,27,02,21,16.50
2014,08,27,02,22,16.40
2014,08,27,02,23,16.40
2014,08,27,02,24,16.40
2014,08,27,02,25,16.40
2014,08,27,02,26,16.40
2014,08,27,02,27,16.40
2014,08,27,02,28,16.40
2014,08,27,02,29,16.40
2014,08,27,02,30,16.40
2014,08,27,02,31,16.40
2014,08,27,02,32,16.40
2014,08,27,02,33,16.40
2014,08,27,02,34,16.30
2014,08,27,02,35,16.30
2014,08,27,02,36,16.30
2014,08,27,02,37,16.30
2014,08,27,02,38,16.30
2014,08,27,02,39,16.30
2014,08,27,02,40,16.30
2014,08,27,02,41,16.30
2014,08,27,02,42,16.30
2014,08,27,02,43,16.30
2014,08,27,02,44,16.30
2014,08,27,02,45,16.30
2014,08,27,02,46,16.30
2014,08,27,02,47,16.30
2014,08,27,02,48,16.30
2014,08,27,02,49,16.20
2014,08,27,02,50,16.30
2014,08,27,02,51,16.30
2014,08,27,02,52,16.30
2014,08,27,02,53,16.30
2014,08,27,02,54,16.30
2014,08,27,02,55,16.30
2014,08,27,02,56,16.30
2014,08,27,02,57,16.20
2014,08,27,02,58,16.20
2014,08,27,02,59,16.20
2014,08,27,03,00,16.20
2014,08,27,03,01,16.20
2014,08,27,03,02,16.20
2014,08,27,03,03,16.20
2014,08,27,03,04,16.20
2014,08,27,03,05,16.20
2014,08,27,03,06,16.10
2014,08,27,03,07,16.10
2014,08,27,03,08,16.10
2014,08,27,03,09,16.10
2014,08,27,03,10,16.10
2014,08,27,03,11,16.10
2014,08,27,03,12,16.10
2014,08,27,03,13,16.10
2014,08,27,03,14,16.10
2014,08,27,03,15,16.00
2014,08,27,03,16,16.10
2014,08,27,03,17,16.00
2014,08,27,03,18,16.10
2014,08,27,03,19,16.00
2014,08,27,03,20,16.00
2014,08,27,03,21,16.00
2014,08,27,03,22,16.00
2014,08,27,03,23,16.10
2014,08,27,03,24,16.00
2014,08,27,03,25,16.00
2014,08,27,03,26,16.00
2014,08,27,03,27,16.00
2014,08,27,03,28,16.00
2014,08,27,03,29,16.00
2014,08,27,03,30,16.00
2014,08,27,03,31,16.00
2014,08,27,03,32,16.00
2014,08,27,03,33,16.00
2014,08,27,03,34,16.00
2014,08,27,03,35,16.00
2014,08,27,03,36,15.90
2014,08,27,03,37,15.90
2014,08,27,03,38,15.90
2014,08,27,03,39,15.90
2014,08,27,03,40,15.90
2014,08,27,03,41,15.90
2014,08,27,03,42,15.90
2014,08,27,03,43,15.90
2014,08,27,03,44,15.90
2014,08,27,03,45,15.90
2014,08,27,03,46,15.80
2014,08,27,03,47,15.90
2014,08,27,03,48,15.80
2014,08,27,03,49,15.90
2014,08,27,03,50,15.80
2014,08,27,03,51,15.90
2014,08,27,03,52,15.80
2014,08,27,03,53,15.80
2014,08,27,03,54,15.80
2014,08,27,03,55,15.80
2014,08,27,03,56,15.80
2014,08,27,03,57,15.80
2014,08,27,03,58,15.80
2014,08,27,03,59,15.80
2014,08,27,04,00,15.80
2014,08,27,04,01,15.80
2014,08,27,04,02,15.70
2014,08,27,04,03,15.70
2014,08,27,04,04,15.70
2014,08,27,04,05,15.70
2014,08,27,04,06,15.70
2014,08,27,04,07,15.70
2014,08,27,04,08,15.70
2014,08,27,04,09,15.70
2014,08,27,04,10,15.70
2014,08,27,04,11,15.70
2014,08,27,04,12,15.70
2014,08,27,04,13,15.70
2014,08,27,04,14,15.70
2014,08,27,04,15,15.70
2014,08,27,04,16,15.70
2014,08,27,04,17,15.70
2014,08,27,04,18,15.60
2014,08,27,04,19,15.60
2014,08,27,04,20,15.60
2014,08,27,04,21,15.60
2014,08,27,04,22,15.60
2014,08,27,04,23,15.60
2014,08,27,04,24,15.60
2014,08,27,04,25,15.60
2014,08,27,04,26,15.60
2014,08,27,04,27,15.60
2014,08,27,04,28,15.50
2014,08,27,04,29,15.50
2014,08,27,04,30,15.50
2014,08,27,04,31,15.50
2014,08,27,04,32,15.50
2014,08,27,04,33,15.40
2014,08,27,04,34,15.40
2014,08,27,04,35,15.40
2014,08,27,04,36,15.40
2014,08,27,04,37,15.40
2014,08,27,04,38,15.40
2014,08,27,04,39,15.40
2014,08,27,04,40,15.40
2014,08,27,04,41,15.40
2014,08,27,04,42,15.30
2014,08,27,04,43,15.30
2014,08,27,04,44,15.30
2014,08,27,04,45,15.30
2014,08,27,04,46,15.30
2014,08,27,04,47,15.30
2014,08,27,04,48,15.30
2014,08,27,04,49,15.30
2014,08,27,04,50,15.30
2014,08,27,04,51,15.30
2014,08,27,04,52,15.30
2014,08,27,04,53,15.30
2014,08,27,04,54,15.30
2014,08,27,04,55,15.30
2014,08,27,04,56,15.30
2014,08,27,04,57,15.30
2014,08,27,04,58,15.30
2014,08,27,04,59,15.30
2014,08,27,05,00,15.20
2014,08,27,05,01,15.20
2014,08,27,05,02,15.20
2014,08,27,05,03,15.20
2014,08,27,05,04,15.20
2014,08,27,05,05,15.20
2014,08,27,05,06,15.10
2014,08,27,05,07,15.10
2014,08,27,05,08,15.00
2014,08,27,05,09,15.00
2014,08,27,05,10,15.00
2014,08,27,05,11,15.00
2014,08,27,05,12,15.00
2014,08,27,05,13,15.00
2014,08,27,05,14,15.00
2014,08,27,05,15,15.00
2014,08,27,05,16,15.00
2014,08,27,05,17,15.00
2014,08,27,05,18,15.00
2014,08,27,05,19,14.90
2014,08,27,05,20,14.90
2014,08,27,05,21,14.80
2014,08,27,05,22,14.80
2014,08,27,05,23,14.80
2014,08,27,05,24,14.80
2014,08,27,05,25,14.80
2014,08,27,05,26,14.80
2014,08,27,05,27,14.80
2014,08,27,05,28,14.80
2014,08,27,05,29,14.70
2014,08,27,05,30,14.70
2014,08,27,05,31,14.70
2014,08,27,05,32,14.70
2014,08,27,05,33,14.70
2014,08,27,05,34,14.70
2014,08,27,05,35,14.70
2014,08,27,05,36,14.70
2014,08,27,05,37,14.70
2014,08,27,05,38,14.70
2014,08,27,05,39,14.70
2014,08,27,05,40,14.70
2014,08,27,05,41,14.70
2014,08,27,05,42,14.70
2014,08,27,05,43,14.70
2014,08,27,05,44,14.70
2014,08,27,05,45,14.60
2014,08,27,05,46,14.60
2014,08,27,05,47,14.60
2014,08,27,05,48,14.60
2014,08,27,05,49,14.70
2014,08,27,05,50,14.70
2014,08,27,05,51,14.70
2014,08,27,05,52,14.70
2014,08,27,05,53,14.70
2014,08,27,05,54,14.70
2014,08,27,05,55,14.70
2014,08,27,05,56,14.70
2014,08,27,05,57,14.70
2014,08,27,05,58,14.60
2014,08,27,05,59,14.60
2014,08,27,06,00,14.60
2014,08,27,06,01,14.60
2014,08,27,06,02,14.60
2014,08,27,06,03,14.60
2014,08,27,06,04,14.60
2014,08,27,06,05,14.60
2014,08,27,06,06,14.60
2014,08,27,06,07,14.60
2014,08,27,06,08,14.60
2014,08,27,06,09,14.60
2014,08,27,06,10,14.60
2014,08,27,06,11,14.60
2014,08,27,06,12,14.60
2014,08,27,06,13,14.60
2014,08,27,06,14,14.60
2014,08,27,06,15,14.60
2014,08,27,06,16,14.50
2014,08,27,06,17,14.50
2014,08,27,06,18,14.50
2014,08,27,06,19,14.50
2014,08,27,06,20,14.50
2014,08,27,06,21,14.50
2014,08,27,06,22,14.50
2014,08,27,06,23,14.50
2014,08,27,06,24,14.50
2014,08,27,06,25,14.50
2014,08,27,06,26,14.50
2014,08,27,06,27,14.50
2014,08,27,06,28,14.50
2014,08,27,06,29,14.50
2014,08,27,06,30,14.50
2014,08,27,06,31,14.50
2014,08,27,06,32,14.50
2014,08,27,06,33,14.50
2014,08,27,06,34,14.50
2014,08,27,06,35,14.50
2014,08,27,06,36,14.50
2014,08,27,06,37,14.60
2014,08,27,06,38,14.60
2014,08,27,06,39,14.60
2014,08,27,06,40,14.60
2014,08,27,06,41,14.60
2014,08,27,06,42,14.60
2014,08,27,06,43,14.70
2014,08,27,06,44,14.70
2014,08,27,06,45,14.70
2014,08,27,06,46,14.70
2014,08,27,06,47,14.80
2014,08,27,06,48,14.80
2014,08,27,06,49,14.80
2014,08,27,06,50,14.80
2014,08,27,06,51,14.80
2014,08,27,06,52,14.80
2014,08,27,06,53,14.80
2014,08,27,06,54,14.80
2014,08,27,06,55,14.80
2014,08,27,06,56,14.80
2014,08,27,06,57,14.80
2014,08,27,06,58,14.90
2014,08,27,06,59,14.90
2014,08,27,07,00,14.90
2014,08,27,07,01,15.00
2014,08,27,07,02,15.00
2014,08,27,07,03,15.00
2014,08,27,07,04,15.00
2014,08,27,07,05,15.00
2014,08,27,07,06,15.00
2014,08,27,07,07,15.00
2014,08,27,07,08,15.00
2014,08,27,07,09,15.00
2014,08,27,07,10,15.00
2014,08,27,07,11,15.00
2014,08,27,07,12,15.00
2014,08,27,07,13,15.00
2014,08,27,07,14,15.00
2014,08,27,07,15,15.00
2014,08,27,07,16,15.00
2014,08,27,07,17,15.00
2014,08,27,07,18,15.00
2014,08,27,07,19,15.00
2014,08,27,07,20,15.00
2014,08,27,07,21,15.00
2014,08,27,07,22,15.00
2014,08,27,07,23,15.00
2014,08,27,07,24,15.10
2014,08,27,07,25,15.20
2014,08,27,07,26,15.20
2014,08,27,07,27,15.30
2014,08,27,07,28,15.40
2014,08,27,07,29,15.40
2014,08,27,07,30,15.50
2014,08,27,07,31,15.60
2014,08,27,07,32,15.70
2014,08,27,07,33,15.70
2014,08,27,07,34,15.80
2014,08,27,07,35,15.80
2014,08,27,07,36,15.90
2014,08,27,07,37,16.00
2014,08,27,07,38,16.00
2014,08,27,07,39,16.10
2014,08,27,07,40,16.10
2014,08,27,07,41,16.20
2014,08,27,07,42,16.20
2014,08,27,07,43,16.30
2014,08,27,07,44,16.40
2014,08,27,07,45,16.50
2014,08,27,07,46,16.60
2014,08,27,07,47,16.70
2014,08,27,07,48,16.80
2014,08,27,07,49,16.90
2014,08,27,07,50,17.00
2014,08,27,07,51,17.10
2014,08,27,07,52,17.20
2014,08,27,07,53,17.30
2014,08,27,07,54,17.50
2014,08,27,07,55,17.60
2014,08,27,07,56,17.70
2014,08,27,07,57,17.80
2014,08,27,07,58,17.90
2014,08,27,07,59,18.10
2014,08,27,08,00,18.20
2014,08,27,08,01,18.30
2014,08,27,08,02,18.50
2014,08,27,08,03,18.60
2014,08,27,08,04,18.70
2014,08,27,08,05,18.80
2014,08,27,08,06,18.90
2014,08,27,08,07,19.00
2014,08,27,08,08,19.10
2014,08,27,08,09,19.20
2014,08,27,08,10,19.30
2014,08,27,08,11,19.40
2014,08,27,08,12,19.40
2014,08,27,08,13,19.50
2014,08,27,08,14,19.60
2014,08,27,08,15,19.60
2014,08,27,08,16,19.70
2014,08,27,08,17,19.80
2014,08,27,08,18,19.90
2014,08,27,08,19,20.00
2014,08,27,08,20,20.00
2014,08,27,08,21,20.10
2014,08,27,08,22,20.20
2014,08,27,08,23,20.30
2014,08,27,08,24,20.40
2014,08,27,08,25,20.40
2014,08,27,08,26,20.50
2014,08,27,08,27,20.60
2014,08,27,08,28,20.70
2014,08,27,08,29,20.70
2014,08,27,08,30,20.80
2014,08,27,08,31,20.90
2014,08,27,08,32,20.90
2014,08,27,08,33,21.00
2014,08,27,08,34,21.10
2014,08,27,08,35,21.10
2014,08,27,08,36,21.10
2014,08,27,08,37,21.20
2014,08,27,08,38,21.20
2014,08,27,08,39,21.20
2014,08,27,08,40,21.20
2014,08,27,08,41,21.30
2014,08,27,08,42,21.30
2014,08,27,08,43,21.30
2014,08,27,08,44,21.30
2014,08,27,08,45,21.40
2014,08,27,08,46,21.40
2014,08,27,08,47,21.40
2014,08,27,08,48,21.50
2014,08,27,08,49,21.50
2014,08,27,08,50,21.50
2014,08,27,08,51,21.50
2014,08,27,08,52,21.40
2014,08,27,08,53,21.40
2014,08,27,08,54,21.40
2014,08,27,08,55,21.40
2014,08,27,08,56,21.40
2014,08,27,08,57,21.40
2014,08,27,08,58,21.40
2014,08,27,08,59,21.40
2014,08,27,09,00,21.40
2014,08,27,09,01,21.40
2014,08,27,09,02,21.40
2014,08,27,09,03,21.50
2014,08,27,09,04,21.50
2014,08,27,09,05,21.50
2014,08,27,09,06,21.60
2014,08,27,09,07,21.60
2014,08,27,09,08,21.60
2014,08,27,09,09,21.70
2014,08,27,09,10,21.70
2014,08,27,09,11,21.70
2014,08,27,09,12,21.80
2014,08,27,09,13,21.80
2014,08,27,09,14,21.90
2014,08,27,09,15,22.00
2014,08,27,09,16,22.10
2014,08,27,09,17,22.10
2014,08,27,09,18,22.20
2014,08,27,09,19,22.30
2014,08,27,09,20,22.30
2014,08,27,09,21,22.30
2014,08,27,09,22,22.30
2014,08,27,09,23,22.30
2014,08,27,09,24,22.30
2014,08,27,09,25,22.30
2014,08,27,09,26,22.20
2014,08,27,09,27,22.20
2014,08,27,09,28,22.30
2014,08,27,09,29,22.30
2014,08,27,09,30,22.30
2014,08,27,09,31,22.30
2014,08,27,09,32,22.30
2014,08,27,09,33,22.30
2014,08,27,09,34,22.20
2014,08,27,09,35,22.20
2014,08,27,09,36,22.20
2014,08,27,09,37,22.20
2014,08,27,09,38,22.30
2014,08,27,09,39,22.30
2014,08,27,09,40,22.30
2014,08,27,09,41,22.30
2014,08,27,09,42,22.30
2014,08,27,09,43,22.40
2014,08,27,09,44,22.40
2014,08,27,09,45,22.40
2014,08,27,09,46,22.50
2014,08,27,09,47,22.40
2014,08,27,09,48,22.40
2014,08,27,09,49,22.40
2014,08,27,09,50,22.40
2014,08,27,09,51,22.50
2014,08,27,09,52,22.50
2014,08,27,09,53,22.50
2014,08,27,09,54,22.60
2014,08,27,09,55,22.60
2014,08,27,09,56,22.70
2014,08,27,09,57,22.70
2014,08,27,09,58,22.80
2014,08,27,09,59,22.80
2014,08,27,10,00,22.80
2014,08,27,10,01,22.80
2014,08,27,10,02,22.90
2014,08,27,10,03,22.90
2014,08,27,10,04,23.00
2014,08,27,10,05,23.00
2014,08,27,10,06,23.10
2014,08,27,10,07,23.10
2014,08,27,10,08,23.10
2014,08,27,10,09,23.00
2014,08,27,10,10,23.00
2014,08,27,10,11,23.00
2014,08,27,10,12,23.00
2014,08,27,10,13,23.00
2014,08,27,10,14,22.90
2014,08,27,10,15,23.00
2014,08,27,10,16,23.00
2014,08,27,10,17,23.10
2014,08,27,10,18,23.20
2014,08,27,10,19,23.20
2014,08,27,10,20,23.20
2014,08,27,10,21,23.30
2014,08,27,10,22,23.30
2014,08,27,10,23,23.40
2014,08,27,10,24,23.40
2014,08,27,10,25,23.40
2014,08,27,10,26,23.40
2014,08,27,10,27,23.40
2014,08,27,10,28,23.40
2014,08,27,10,29,23.30
2014,08,27,10,30,23.20
2014,08,27,10,31,23.20
2014,08,27,10,32,23.10
2014,08,27,10,33,23.10
2014,08,27,10,34,23.10
2014,08,27,10,35,23.10
2014,08,27,10,36,23.10
2014,08,27,10,37,23.10
2014,08,27,10,38,23.10
2014,08,27,10,39,23.20
2014,08,27,10,40,23.20
2014,08,27,10,41,23.20
2014,08,27,10,42,23.20
2014,08,27,10,43,23.30
2014,08,27,10,44,23.30
2014,08,27,10,45,23.40
2014,08,27,10,46,23.40
2014,08,27,10,47,23.50
2014,08,27,10,48,23.60
2014,08,27,10,49,23.60
2014,08,27,10,50,23.60
2014,08,27,10,51,23.60
2014,08,27,10,52,23.50
2014,08,27,10,53,23.50
2014,08,27,10,54,23.60
2014,08,27,10,55,23.60
2014,08,27,10,56,23.60
2014,08,27,10,57,23.60
2014,08,27,10,58,23.60
2014,08,27,10,59,23.60
2014,08,27,11,00,23.60
2014,08,27,11,01,23.70
2014,08,27,11,02,23.80
2014,08,27,11,03,23.80
2014,08,27,11,04,23.80
2014,08,27,11,05,23.90
2014,08,27,11,06,24.00
2014,08,27,11,07,24.10
2014,08,27,11,08,24.20
2014,08,27,11,09,24.20
2014,08,27,11,10,24.10
2014,08,27,11,11,24.10
2014,08,27,11,12,24.10
2014,08,27,11,13,24.00
2014,08,27,11,14,24.00
2014,08,27,11,15,24.00
2014,08,27,11,16,24.00
2014,08,27,11,17,24.00
2014,08,27,11,18,24.00
2014,08,27,11,19,24.00
2014,08,27,11,20,24.00
2014,08,27,11,21,24.10
2014,08,27,11,22,24.10
2014,08,27,11,23,24.10
2014,08,27,11,24,24.10
2014,08,27,11,25,24.10
2014,08,27,11,26,24.10
2014,08,27,11,27,24.10
2014,08,27,11,28,24.10
2014,08,27,11,29,24.10
2014,08,27,11,30,24.10
2014,08,27,11,31,24.10
2014,08,27,11,32,24.20
2014,08,27,11,33,24.30
2014,08,27,11,34,24.40
2014,08,27,11,35,24.40
2014,08,27,11,36,24.40
2014,08,27,11,37,24.40
2014,08,27,11,38,24.50
2014,08,27,11,39,24.60
2014,08,27,11,40,24.60
2014,08,27,11,41,24.60
2014,08,27,11,42,24.70
2014,08,27,11,43,24.70
2014,08,27,11,44,24.70
2014,08,27,11,45,24.70
2014,08,27,11,46,24.70
2014,08,27,11,47,24.80
2014,08,27,11,48,24.80
2014,08,27,11,49,24.80
2014,08,27,11,50,24.80
2014,08,27,11,51,24.90
2014,08,27,11,52,25.00
2014,08,27,11,53,25.00
2014,08,27,11,54,25.10
2014,08,27,11,55,25.10
2014,08,27,11,56,25.10
2014,08,27,11,57,25.00
2014,08,27,11,58,24.90
2014,08,27,11,59,24.90
2014,08,27,12,00,24.90
2014,08,27,12,01,24.90
2014,08,27,12,02,24.90
2014,08,27,12,03,24.90
2014,08,27,12,04,25.00
2014,08,27,12,05,25.00
2014,08,27,12,06,25.00
2014,08,27,12,07,25.10
2014,08,27,12,08,25.10
2014,08,27,12,09,25.00
2014,08,27,12,10,25.00
2014,08,27,12,11,24.90
2014,08,27,12,12,24.80
2014,08,27,12,13,24.80
2014,08,27,12,14,24.80
2014,08,27,12,15,24.80
2014,08,27,12,16,24.80
2014,08,27,12,17,24.80
2014,08,27,12,18,24.90
2014,08,27,12,19,24.80
2014,08,27,12,20,24.80
2014,08,27,12,21,24.90
2014,08,27,12,22,24.90
2014,08,27,12,23,24.90
2014,08,27,12,24,24.90
2014,08,27,12,25,24.80
2014,08,27,12,26,24.80
2014,08,27,12,27,24.80
2014,08,27,12,28,24.90
2014,08,27,12,29,24.90
2014,08,27,12,30,25.00
2014,08,27,12,31,25.00
2014,08,27,12,32,25.00
2014,08,27,12,33,25.10
2014,08,27,12,34,25.20
2014,08,27,12,35,25.20
2014,08,27,12,36,25.20
2014,08,27,12,37,25.20
2014,08,27,12,38,25.20
2014,08,27,12,39,25.10
2014,08,27,12,40,25.10
2014,08,27,12,41,25.00
2014,08,27,12,42,25.00
2014,08,27,12,43,25.00
2014,08,27,12,44,25.10
2014,08,27,12,45,25.20
2014,08,27,12,46,25.30
2014,08,27,12,47,25.30
2014,08,27,12,48,25.30
2014,08,27,12,49,25.20
2014,08,27,12,50,25.20
2014,08,27,12,51,25.20
2014,08,27,12,52,25.20
2014,08,27,12,53,25.20
2014,08,27,12,54,25.10
2014,08,27,12,55,25.10
2014,08,27,12,56,25.10
2014,08,27,12,57,25.20
2014,08,27,12,58,25.20
2014,08,27,12,59,25.30
2014,08,27,13,00,25.30
2014,08,27,13,01,25.30
2014,08,27,13,02,25.40
2014,08,27,13,03,25.50
2014,08,27,13,04,25.50
2014,08,27,13,05,25.50
2014,08,27,13,06,25.60
2014,08,27,13,07,25.60
2014,08,27,13,08,25.60
2014,08,27,13,09,25.60
2014,08,27,13,10,25.50
2014,08,27,13,11,25.50
2014,08,27,13,12,25.60
2014,08,27,13,13,25.50
2014,08,27,13,14,25.50
2014,08,27,13,15,25.50
2014,08,27,13,16,25.60
2014,08,27,13,17,25.60
2014,08,27,13,18,25.70
2014,08,27,13,19,25.70
2014,08,27,13,20,25.70
2014,08,27,13,21,25.60
2014,08,27,13,22,25.50
2014,08,27,13,23,25.40
2014,08,27,13,24,25.40
2014,08,27,13,25,25.50
2014,08,27,13,26,25.60
2014,08,27,13,27,25.70
2014,08,27,13,28,25.80
2014,08,27,13,29,25.80
2014,08,27,13,30,25.80
2014,08,27,13,31,25.80
2014,08,27,13,32,25.80
2014,08,27,13,33,25.70
2014,08,27,13,34,25.80
2014,08,27,13,35,25.80
2014,08,27,13,36,25.80
2014,08,27,13,37,25.80
2014,08,27,13,38,25.80
2014,08,27,13,39,25.80
2014,08,27,13,40,25.90
2014,08,27,13,41,25.90
2014,08,27,13,42,25.90
2014,08,27,13,43,25.90
2014,08,27,13,44,25.90
2014,08,27,13,45,25.80
2014,08,27,13,46,25.80
2014,08,27,13,47,25.70
2014,08,27,13,48,25.70
2014,08,27,13,49,25.60
2014,08,27,13,50,25.70
2014,08,27,13,51,25.60
2014,08,27,13,52,25.60
2014,08,27,13,53,25.50
2014,08,27,13,54,25.50
2014,08,27,13,55,25.50
2014,08,27,13,56,25.40
2014,08,27,13,57,25.30
2014,08,27,13,58,25.40
2014,08,27,13,59,25.50
2014,08,27,14,00,25.50
2014,08,27,14,01,25.60
2014,08,27,14,02,25.70
2014,08,27,14,03,25.80
2014,08,27,14,04,25.80
2014,08,27,14,05,25.80
2014,08,27,14,06,25.90
2014,08,27,14,07,25.90
2014,08,27,14,08,25.90
2014,08,27,14,09,25.80
2014,08,27,14,10,25.80
2014,08,27,14,11,25.80
2014,08,27,14,12,25.80
2014,08,27,14,13,25.80
2014,08,27,14,14,25.80
2014,08,27,14,15,25.80
2014,08,27,14,16,25.90
2014,08,27,14,17,25.90
2014,08,27,14,18,25.90
2014,08,27,14,19,25.90
2014,08,27,14,20,26.00
2014,08,27,14,21,26.10
2014,08,27,14,22,26.20
2014,08,27,14,23,26.20
2014,08,27,14,24,26.20
2014,08,27,14,25,26.00
2014,08,27,14,26,25.90
2014,08,27,14,27,25.80
2014,08,27,14,28,25.70
2014,08,27,14,29,25.60
2014,08,27,14,30,25.60
2014,08,27,14,31,25.60
2014,08,27,14,32,25.70
2014,08,27,14,33,25.70
2014,08,27,14,34,25.80
2014,08,27,14,35,25.90
2014,08,27,14,36,26.00
2014,08,27,14,37,26.10
2014,08,27,14,38,26.20
2014,08,27,14,39,26.20
2014,08,27,14,40,26.20
2014,08,27,14,41,26.40
2014,08,27,14,42,26.60
2014,08,27,14,43,26.70
2014,08,27,14,44,26.70
2014,08,27,14,45,26.70
2014,08,27,14,46,26.60
2014,08,27,14,47,26.60
2014,08,27,14,48,26.70
2014,08,27,14,49,26.70
2014,08,27,14,50,26.70
2014,08,27,14,51,26.80
2014,08,27,14,52,26.80
2014,08,27,14,53,26.80
2014,08,27,14,54,26.90
2014,08,27,14,55,26.90
2014,08,27,14,56,26.90
2014,08,27,14,57,27.00
2014,08,27,14,58,27.10
2014,08,27,14,59,27.10
2014,08,27,15,00,27.10
2014,08,27,15,01,27.10
2014,08,27,15,02,27.20
2014,08,27,15,03,27.20
2014,08,27,15,04,27.30
2014,08,27,15,05,27.40
2014,08,27,15,06,27.50
2014,08,27,15,07,27.40
2014,08,27,15,08,27.50
2014,08,27,15,09,27.60
2014,08,27,15,10,27.60
2014,08,27,15,11,27.70
2014,08,27,15,12,27.70
2014,08,27,15,13,27.70
2014,08,27,15,14,27.70
2014,08,27,15,15,27.70
2014,08,27,15,16,27.80
2014,08,27,15,17,27.90
2014,08,27,15,18,27.90
2014,08,27,15,19,27.90
2014,08,27,15,20,27.90
2014,08,27,15,21,27.90
2014,08,27,15,22,27.70
2014,08,27,15,23,27.70
2014,08,27,15,24,27.70
2014,08,27,15,25,27.80
2014,08,27,15,26,27.80
2014,08,27,15,27,27.70
2014,08,27,15,28,27.70
2014,08,27,15,29,27.60
2014,08,27,15,30,27.60
2014,08,27,15,31,27.70
2014,08,27,15,32,27.80
2014,08,27,15,33,27.70
2014,08,27,15,34,27.70
2014,08,27,15,35,27.70
2014,08,27,15,36,27.70
2014,08,27,15,37,27.80
2014,08,27,15,38,27.90
2014,08,27,15,39,27.90
2014,08,27,15,40,28.00
2014,08,27,15,41,28.00
2014,08,27,15,42,28.00
2014,08,27,15,43,28.00
2014,08,27,15,44,27.90
2014,08,27,15,45,27.90
2014,08,27,15,46,28.00
2014,08,27,15,47,28.00
2014,08,27,15,48,28.10
2014,08,27,15,49,28.20
2014,08,27,15,50,28.30
2014,08,27,15,51,28.40
2014,08,27,15,52,28.40
2014,08,27,15,53,28.40
2014,08,27,15,54,28.40
2014,08,27,15,55,28.50
2014,08,27,15,56,28.50
2014,08,27,15,57,28.50
2014,08,27,15,58,28.60
2014,08,27,15,59,28.70
2014,08,27,16,00,28.80
2014,08,27,16,01,28.80
2014,08,27,16,02,28.90
2014,08,27,16,03,29.10
2014,08,27,16,04,29.20
2014,08,27,16,05,29.30
2014,08,27,16,06,29.50
2014,08,27,16,07,29.60
2014,08,27,16,08,29.70
2014,08,27,16,09,29.80
2014,08,27,16,10,29.80
2014,08,27,16,11,29.70
2014,08,27,16,12,29.70
2014,08,27,16,13,29.70
2014,08,27,16,14,29.60
2014,08,27,16,15,29.50
2014,08,27,16,16,29.40
2014,08,27,16,17,29.30
2014,08,27,16,18,29.30
2014,08,27,16,19,29.30
2014,08,27,16,20,29.40
2014,08,27,16,21,29.40
2014,08,27,16,22,29.40
2014,08,27,16,23,29.40
2014,08,27,16,24,29.40
2014,08,27,16,25,29.40
2014,08,27,16,26,29.40
2014,08,27,16,27,29.40
2014,08,27,16,28,29.40
2014,08,27,16,29,29.40
2014,08,27,16,30,29.40
2014,08,27,16,31,29.40
2014,08,27,16,32,29.50
2014,08,27,16,33,29.50
2014,08,27,16,34,29.60
2014,08,27,16,35,29.60
2014,08,27,16,36,29.60
2014,08,27,16,37,29.60
2014,08,27,16,38,29.50
2014,08,27,16,39,29.40
2014,08,27,16,40,29.40
2014,08,27,16,41,29.30
2014,08,27,16,42,29.30
2014,08,27,16,43,29.30
2014,08,27,16,44,29.30
2014,08,27,16,45,29.30
2014,08,27,16,46,29.30
2014,08,27,16,47,29.30
2014,08,27,16,48,29.20
2014,08,27,16,49,29.20
2014,08,27,16,50,29.20
2014,08,27,16,51,29.20
2014,08,27,16,52,29.20
2014,08,27,16,53,29.20
2014,08,27,16,54,29.10
2014,08,27,16,55,29.00
2014,08,27,16,56,28.90
2014,08,27,16,57,28.80
2014,08,27,16,58,28.70
2014,08,27,16,59,28.60
2014,08,27,17,00,28.40
2014,08,27,17,01,28.20
2014,08,27,17,02,28.20
2014,08,27,17,03,28.10
2014,08,27,17,04,28.10
2014,08,27,17,05,28.00
2014,08,27,17,06,28.00
2014,08,27,17,07,28.00
2014,08,27,17,08,28.00
2014,08,27,17,09,27.90
2014,08,27,17,10,27.90
2014,08,27,17,11,27.80
2014,08,27,17,12,27.80
2014,08,27,17,13,27.90
2014,08,27,17,14,27.90
2014,08,27,17,15,28.00
2014,08,27,17,16,28.20
2014,08,27,17,17,28.30
2014,08,27,17,18,28.40
2014,08,27,17,19,28.40